Location: Calberlah
(52.4230°N, 10.6240°E)
Time: 23:25:38
(UTC+00:00)

Cosmos 2341 Rocket - Pass Details

Date: 19 May 2025
Orbit: 966 x 1004 km, 82.9° (Epoch: 15 June)

Event Time Altitude Azimuth Distance (km) Brightness Sun altitude
Rises 19:51:07 0° 351° (N) 3,700 8.0 -5.3°
Reaches altitude 10° 19:53:46 10° 357° (N) 2,743 7.1 -5.6°
Maximum altitude 19:59:50 49° 72° (ENE) 1,242 4.4 -6.3°
Drops below altitude 10° 20:05:49 10° 147° (SSE) 2,707 5.7 -6.9°
Enters shadow 20:06:25 - 148° (SSE) 2,919 5.8 -7.0°
